Location: Bremen
(53.0793°N, 8.8017°E)
Time: 09:11:38
(UTC+01:00)

Vanguard 2 - Visible Passes

Search period start: 03 December 2021 00:00
Search period end: 13 December 2021 00:00
Orbit: 554 x 2936 km, 32.9° (Epoch: 02 December)

Date Brightness Start Highest point End Pass type
(mag) Time Alt. Az. Time Alt. Az. Time Alt. Az.
03 Dec 11.0 16:55:30 10° SW 16:59:44 16° S 17:05:07 10° SSE visible
03 Dec 11.4 19:05:31 10° SSW 19:07:49 11° SSW 19:10:20 10° S visible
04 Dec 11.1 17:13:29 10° SW 17:17:04 14° S 17:21:23 10° SSE visible
05 Dec 11.2 17:32:20 10° SSW 17:34:24 11° S 17:36:42 10° S visible
